Flag for Germany Weather past 2 weeks in Vechta, Lower Saxony, Germany

Now
36 °F

Rain. Passing clouds.


Feels Like: 25 °F
Forecast: 37 / 43 °F
Wind: 20 mph from South

Location: Bremen Airport

Current Time: Mar 31, 2015 at 4:47:14 AM

Latest Report: Mar 31, 2015 at 4:20 AM


Visibility: 4 mi

Pressure: 29.24 "Hg

Humidity: 93%

Dew point: 34 °F

Location of VechtaLocation

Historic Weather in Vechta — Graph

°F

Vechta temperature yesterday

Maximum temperature yesterday: 48 °F (at 1:20 PM)
Minimum temperature yesterday: 39 °F (at 4:50 AM)
Average temperature yesterday: 43 °F

Past Weeks' High & Low Weather Summary

 TemperatureHumidityPressure
High61 °F (Mar 17, 3:50 PM)100% (Mar 19, 12:20 AM)30.42 "Hg (Mar 19, 12:20 AM)
Low28 °F (Mar 23, 5:20 AM)29% (Mar 19, 2:50 PM)29.00 "Hg (Mar 29, 8:20 PM)
Average44 °F79%29.97 "Hg
* Reported Mar 16 2:20 AM — Mar 31 3:50 AM, Vechta, Weather by CustomWeather, © 2015

Note: Actual official high and low records may vary slightly from our data, if they occured in-between our weather recording intervals... More about our weather records

Advertising

Vechta weather history for previous 24 hours

 ConditionsComfort  
Time TempWeatherWind HumidityBarometerVisibility
3:50 AM
Tue, Mar 31
36 °FRain. Passing clouds.18 mph100%29.30 "Hg4 mi
3:20 AM37 °FRain. Passing clouds.16 mph93%29.36 "Hg5 mi
2:50 AM37 °FLight rain. Passing clouds.16 mph93%29.42 "HgN/A
2:20 AM39 °FLight rain. Partly cloudy.20 mph81%29.47 "HgN/A
1:20 AM41 °FClear.10 mph66%29.53 "Hg10 mi
12:50 AM41 °FClear.14 mph70%29.56 "Hg10 mi
12:20 AM41 °FClear.13 mph70%29.59 "Hg10 mi
11:50 PM
Mon, Mar 30
41 °FClear.15 mph76%29.62 "Hg10 mi
11:20 PM41 °FClear.13 mph76%29.65 "Hg10 mi
10:50 PM41 °FClear.13 mph76%29.65 "Hg10 mi
10:20 PM41 °FPassing clouds.13 mph76%29.68 "HgN/A
9:50 PM39 °FPassing clouds.12 mph81%29.68 "HgN/A
9:20 PM39 °FPassing clouds.14 mph75%29.68 "HgN/A
8:50 PM41 °FPartly sunny.18 mph70%29.71 "HgN/A
8:20 PM41 °FScattered clouds.17 mph70%29.68 "HgN/A
7:50 PM43 °FScattered clouds.17 mph66%29.68 "HgN/A
7:20 PM43 °FScattered clouds.23 mph66%29.68 "HgN/A
6:50 PM45 °FScattered clouds.20 mph61%29.65 "HgN/A
6:20 PM45 °FScattered clouds.28 mph61%29.65 "HgN/A
5:50 PM46 °FScattered clouds.26 mph62%29.62 "HgN/A
5:20 PM45 °FPassing clouds.26 mph66%29.62 "HgN/A
4:50 PM43 °FPassing clouds.23 mph76%29.62 "HgN/A
4:20 PM45 °FScattered clouds.28 mph66%29.59 "HgN/A
3:50 PM46 °FScattered clouds.26 mph66%29.56 "HgN/A
3:20 PM46 °FScattered clouds.29 mph62%29.53 "HgN/A
2:50 PM43 °FScattered clouds.23 mph81%29.53 "HgN/A
2:20 PM48 °FSprinkles. Scattered clouds.31 mph54%29.50 "HgN/A
1:50 PM48 °FScattered clouds.31 mph66%29.50 "HgN/A
1:20 PM48 °FScattered clouds.28 mph66%29.47 "HgN/A
12:50 PM45 °FScattered clouds.28 mph76%29.45 "HgN/A
12:20 PM45 °FScattered clouds.33 mph81%29.45 "HgN/A
11:50 AM45 °FPassing clouds.31 mph81%29.42 "HgN/A
11:20 AM43 °FSprinkles. Broken clouds.35 mph81%29.39 "HgN/A
10:50 AM41 °FBroken clouds.29 mph87%29.36 "HgN/A
10:20 AM41 °FBroken clouds.26 mph87%29.36 "HgN/A
9:50 AM41 °FRain showers. Partly sunny.28 mph87%29.33 "Hg3 mi
9:20 AM39 °FSprinkles. Broken clouds.24 mph93%29.33 "HgN/A
8:50 AM41 °FSprinkles. Partly sunny.26 mph87%29.33 "Hg6 mi
8:20 AM39 °FPassing clouds.21 mph87%29.30 "HgN/A
7:50 AM39 °FPassing clouds.24 mph93%29.30 "HgN/A
7:20 AM41 °FSprinkles. Passing clouds.17 mph87%29.27 "HgN/A
6:50 AM41 °FPassing clouds.21 mph81%29.27 "HgN/A
6:20 AM41 °FPassing clouds.25 mph81%29.24 "HgN/A
5:50 AM41 °FLight rain. Passing clouds.22 mph93%29.24 "HgN/A
5:20 AM43 °FPassing clouds.18 mph87%29.24 "HgN/A
4:50 AM39 °FLight rain. Passing clouds.23 mph100%29.24 "HgN/A
4:20 AM41 °FLight rain. Passing clouds.15 mph93%29.21 "HgN/A
Weather by CustomWeather, © 2015

See weather overviewHow to use our weather pages